Grand Junction, CO

10:20 AM MDT on September 18, 2019 (GMT -0600)
Walker

Weather History for KGJT - April, 2019

Change the Weather History Date:

Friday, April 26, 2019

  Actual Average Record
Temperature  
Mean Temperature 66 °F 55 °F  
Max Temperature 81 °F 69 °F 84 °F (1981)
Min Temperature 50 °F 41 °F 28 °F (1969)
Degree Days  
Heating Degree Days 0 10  
Month to date heating degree days 262 364  
Since 1 July heating degree days 5370 5396  
Cooling Degree Days 1 0  
Month to date cooling degree days 1 0  
Year to date cooling degree days 1 0  
Growing Degree Days 16 (Base 50)    
Moisture  
Dew Point 40 °F    
Average Humidity 56    
Maximum Humidity 89    
Minimum Humidity 23    
Precipitation  
Precipitation 0.08 in 0.03 in 0.53 in (1965)
Month to date precipitation 0.46 0.80  
Year to date precipitation 4.19 2.84  
Snow  
Snow 0.00 in 0.10 in 0.90 in (1984)
Month to date snowfall T 0.9  
Since 1 July snowfall 17.4 19.0  
Snow Depth 0.00 in    
Sea Level Pressure  
Sea Level Pressure 29.88 in    
Wind  
Wind Speed 6 mph (East)    
Max Wind Speed 44 mph    
Max Gust Speed 73 mph    
Visibility 9 miles    
Events Rain , Thunderstorm    
T = Trace of Precipitation, MM = Missing Value Source: NWS Daily Summary

Daily Weather History Graph

Daily Weather History Graph

Search for Another Location

Airport or City:

Astronomy

Apr. 26, 2019 Rise Set
Actual Time 6:22 AM MDT 8:02 PM MDT
Civil Twilight 5:53 AM MDT 8:30 PM MDT
Nautical Twilight 5:19 AM MDT 9:05 PM MDT
Astronomical Twilight 4:43 AM MDT 9:41 PM MDT
Moon 2:17 AM MDT (4/26) 12:13 PM MDT (4/26)
Length of Visible Light 14h 36m
Length of Day
13h 39m
Waning Gibbous, 52% of the Moon is Illuminated
Apr 26
Waning Gibbous
Apr 26
Last Quarter
May 4
New
May 11
First Quarter
May 18
Full

Hourly Weather History & Observations

Time (MDT) Temp. Dew Point Humidity Pressure Visibility Wind Dir Wind Speed Gust Speed Precip Events Conditions
12:53 AM 59.0 °F 32.0 °F 36% 29.92 in 10.0 mi ESE 4.6 mph - N/A   Clear
1:53 AM 57.9 °F 33.1 °F 39% 29.91 in 10.0 mi East 3.5 mph - N/A   Clear
2:53 AM 53.1 °F 34.0 °F 48% 29.91 in 10.0 mi Calm Calm - N/A   Clear
3:53 AM 52.0 °F 35.1 °F 53% 29.92 in 10.0 mi East 3.5 mph - N/A   Clear
4:53 AM 50.0 °F 34.0 °F 54% 29.93 in 10.0 mi ESE 8.1 mph - N/A   Clear
5:53 AM 51.1 °F 34.0 °F 52% 29.93 in 10.0 mi East 8.1 mph - N/A   Partly Cloudy
6:53 AM 53.1 °F 35.1 °F 50% 29.94 in 10.0 mi ESE 3.5 mph - N/A   Mostly Cloudy
7:53 AM 54.0 °F 36.0 °F 51% 29.96 in 10.0 mi ESE 3.5 mph - N/A   Mostly Cloudy
8:53 AM 57.9 °F 37.0 °F 46% 29.95 in 10.0 mi Calm Calm - 0.00 in   Scattered Clouds
9:53 AM 63.0 °F 36.0 °F 37% 29.93 in 10.0 mi SSE 6.9 mph - N/A   Partly Cloudy
10:53 AM 66.0 °F 34.0 °F 30% 29.92 in 10.0 mi SE 4.6 mph - N/A   Partly Cloudy
11:53 AM 71.1 °F 34.0 °F 26% 29.88 in 10.0 mi Variable 4.6 mph - N/A   Clear
12:53 PM 73.9 °F 36.0 °F 25% 29.83 in 10.0 mi Variable 4.6 mph - N/A   Clear
1:53 PM 77.0 °F 37.9 °F 24% 29.78 in 10.0 mi SSW 11.5 mph - N/A   Partly Cloudy
2:53 PM 79.0 °F 37.9 °F 23% 29.75 in 10.0 mi Variable 6.9 mph 17.3 mph N/A   Partly Cloudy
3:40 PM 75.9 °F 35.1 °F 23% 29.90 in 10.0 mi West 19.6 mph 31.1 mph N/A Thunderstorm Thunderstorm
3:53 PM 73.0 °F 37.9 °F 28% 29.77 in 10.0 mi West 23.0 mph 44.9 mph 0.00 in Rain , Thunderstorm Light Thunderstorms and Rain
3:59 PM 66.9 °F 39.9 °F 37% 29.97 in 2.5 mi WNW 42.6 mph 72.5 mph 0.00 in Rain , Thunderstorm Light Thunderstorms and Rain
4:06 PM 57.9 °F 46.9 °F 67% 29.98 in 1.2 mi WNW 16.1 mph 62.1 mph 0.02 in Rain , Thunderstorm Thunderstorms and Rain
4:11 PM 57.9 °F 46.0 °F 65% 29.97 in 3.0 mi NNW 13.8 mph 40.3 mph 0.02 in Rain , Thunderstorm Light Thunderstorms and Rain
4:42 PM 68.0 °F 48.9 °F 50% 29.92 in 10.0 mi Calm Calm - 0.02 in   Clear
4:53 PM 69.1 °F 45.0 °F 42% 29.79 in 10.0 mi SW 8.1 mph - 0.02 in   Clear
5:53 PM 70.0 °F 42.1 °F 36% 29.77 in 10.0 mi SW 8.1 mph - N/A   Clear
6:53 PM 66.0 °F 44.1 °F 45% 29.75 in 10.0 mi East 5.8 mph - N/A   Partly Cloudy
7:53 PM 64.9 °F 44.1 °F 47% 29.78 in 10.0 mi NW 8.1 mph - N/A   Mostly Cloudy
8:04 PM 59.0 °F 46.9 °F 64% 29.96 in 8.0 mi NW 33.4 mph 49.5 mph 0.00 in Rain Light Rain
8:53 PM 57.0 °F 45.0 °F 64% 29.86 in 10.0 mi North 4.6 mph - 0.00 in   Partly Cloudy
9:53 PM 54.0 °F 50.0 °F 86% 29.87 in 10.0 mi ENE 5.8 mph - 0.01 in   Overcast
10:53 PM 54.0 °F 48.0 °F 80% 29.94 in 4.0 mi NNW 13.8 mph - 0.03 in Rain Heavy Rain
11:53 PM 53.1 °F 48.9 °F 86% 29.88 in 10.0 mi SE 9.2 mph - 0.02 in   Mostly Cloudy